[[{"header":{"parameterUnit":"m.s-1","parameterCategory":1,"la1":30.2991,"la2":30.254,"lo1":-89.0895,"lo2":-89.0444,"dy":0.0017,"dx":0.0017,"nx":28,"ny":28,"refTime":"2023-08-19T03:00:00:Z","depth":0,"parameterNumber":2,"parameterNumberName":"U-component_of_WINDS"},"data":[0,0,0,0,0,0,0,0,0,0,0,0,0,0,0,0,0,0,0,0,0,0,0,0,0,0,0,0,0,0,0,0,0,0,0,0,0,0,0,0,0,0,0,0,0,0,0,0,0,0,0,0,0,0,0,0,0,0,-0.3165,-0.3165,0,-0.3182,-0.3182,-0.3182,-0.3235,-0.3236,-0.3237,-0.3238,-0.325,-0.3249,-0.3249,0,0,0,0,0,0,0,0,0,0,0,0,0,-0.3175,-0.3175,-0.3165,-0.3165,-0.3165,-0.3182,-0.3182,-0.3182,-0.3234,-0.3236,-0.3237,-0.3239,-0.325,-0.3249,-0.3248,0,0,0,0,0,0,0,0,0,0,0,0,0,-0.3179,-0.3174,-0.3165,-0.3194,-0.3196,-0.3182,-0.3182,-0.3182,-0.3234,-0.3236,-0.3238,-0.3239,-0.3251,-0.3249,-0.3248,-0.3205,0,0,-0.3245,-0.3244,0,0,0,0,0,0,0,0,-0.3179,-0.3178,-0.3189,-0.3192,-0.3195,-0.3208,-0.319,-0.319,-0.3234,-0.322,-0.3238,-0.324,-0.3234,-0.3235,-0.3234,-0.3206,-0.3206,-0.3245,-0.3244,-0.3243,-0.3243,0,0,0,0,0,0,0,-0.3178,-0.3178,-0.3171,-0.3189,-0.3193,-0.3205,-0.3207,-0.319,-0.3217,-0.3221,-0.3225,-0.3226,-0.3236,-0.3235,-0.3234,-0.3207,-0.3245,-0.3244,-0.3243,-0.3242,-0.3145,-0.3143,0,0,0,0,0,0,-0.3174,-0.3177,-0.3171,-0.3172,-0.3191,-0.3203,-0.3206,-0.3202,-0.3217,-0.3221,-0.3225,-0.3229,-0.3236,-0.3236,-0.3235,-0.3185,-0.3243,-0.3242,-0.3242,-0.3146,-0.3144,-0.3142,0,0,0,0,0,0,-0.3175,-0.3173,-0.317,-0.3176,-0.3176,-0.3201,-0.3196,-0.3201,-0.32,-0.322,-0.3225,-0.3219,-0.3237,-0.3237,-0.3213,-0.3186,-0.3242,-0.3241,-0.3149,-0.3146,-0.3143,-0.3085,0,0,0,0,0,0,-0.3175,-0.3173,-0.3158,-0.3175,-0.3176,-0.3149,-0.3195,-0.32,-0.3198,-0.3204,-0.3215,-0.3219,-0.3239,-0.3214,-0.3211,-0.3186,-0.324,-0.3151,-0.3147,-0.3144,-0.309,-0.3081,-0.3074,0,0,0,0,0,-0.3175,-0.314,-0.3157,-0.3156,-0.3157,-0.3147,-0.3147,-0.3172,-0.3196,-0.318,-0.3193,-0.3219,-0.319,-0.3211,-0.3209,-0.3182,-0.3153,-0.3148,-0.3144,-0.3093,-0.3083,-0.3074,0,0,0,0,0,0,-0.3117,-0.3143,-0.3162,-0.3132,-0.3137,-0.3156,-0.3137,-0.316,-0.3157,-0.3162,-0.3191,-0.3193,-0.3165,-0.3172,-0.3195,-0.3141,-0.3176,-0.3171,-0.3138,-0.3128,-0.312,-0.3118,-0.3239,0,0,0,0,0,-0.3101,-0.3092,-0.3114,-0.3085,-0.3087,-0.3112,-0.3108,-0.3127,-0.3133,-0.3135,-0.3146,-0.315,-0.3142,-0.3136,-0.3129,-0.3092,-0.3094,-0.3072,-0.3064,-0.3058,-0.3052,-0.3032,-0.3022,-0.3128,-0.3128,-0.3128,0,0,-0.3067,-0.308,-0.3072,-0.3074,-0.3081,-0.3069,-0.3113,-0.3099,-0.309,-0.3132,-0.311,-0.3119,-0.3125,-0.3094,-0.3081,-0.3099,-0.3024,-0.3052,-0.3047,-0.3045,-0.3027,-0.3017,-0.3008,-0.3125,-0.3126,-0.3126,0,0,-0.2999,-0.3009,-0.2986,-0.2992,-0.3002,-0.3018,-0.3013,-0.3029,-0.3037,-0.3016,-0.3047,-0.3037,-0.3023,-0.3026,-0.3025,-0.296,-0.2983,-0.2958,-0.2914,-0.2894,-0.2886,-0.2879,-0.2854,-0.2845,-0.2953,-0.2952,-0.2952,0,-0.2955,-0.294,-0.297,-0.2955,-0.2954,-0.2994,-0.297,-0.2974,-0.2981,-0.2979,-0.2999,-0.2983,-0.299,-0.296,-0.2944,-0.2943,-0.2936,-0.2955,-0.2885,-0.2878,-0.2872,-0.2849,-0.284,-0.2949,-0.295,-0.295,-0.295,0,-0.2885,-0.2875,-0.2855,-0.2862,-0.286,-0.284,-0.2866,-0.286,-0.2879,-0.2893,-0.2871,-0.2882,-0.2878,-0.2873,-0.2891,-0.2845,-0.2856,-0.288,-0.2915,-0.2858,-0.2837,-0.2828,-0.2944,-0.2946,-0.2947,-0.2947,0,0,-0.2779,-0.2805,-0.2797,-0.28,-0.2815,-0.2807,-0.2789,-0.2787,-0.2781,-0.2785,-0.2769,-0.2757,-0.278,-0.278,-0.2799,-0.2782,-0.2729,-0.2808,-0.2809,-0.2792,-0.2678,-0.2658,-0.2647,-0.2745,-0.2743,-0.2742,-0.2677,0,-0.2713,-0.2685,-0.2712,-0.2678,-0.2668,-0.2707,-0.2691,-0.2698,-0.2711,-0.2703,-0.2718,-0.2708,-0.274,-0.274,-0.2725,-0.2738,-0.2706,-0.2744,-0.2729,-0.2728,-0.2724,-0.2637,-0.2615,-0.2553,-0.2669,-0.2668,-0.2667,0,-0.2633,-0.2634,-0.2599,-0.2617,-0.2614,-0.2599,-0.26,-0.2594,-0.2602,-0.2613,-0.2613,-0.2637,-0.262,-0.2655,-0.2631,-0.2656,-0.2652,-0.2657,-0.2656,-0.2653,-0.2692,-0.263,-0.2534,-0.2524,-0.2654,-0.2655,-0.2656,0,-0.2556,-0.255,-0.2529,-0.2531,-0.2552,-0.254,-0.2548,-0.2559,-0.2556,-0.2557,-0.2555,-0.2553,-0.2551,-0.2549,-0.2571,-0.2595,-0.2543,-0.2581,-0.255,-0.2549,-0.2535,-0.2535,-0.2435,-0.2536,-0.2536,-0.2536,-0.2536,0,-0.2479,-0.2456,-0.2495,-0.2481,-0.2456,-0.2488,-0.2462,-0.2474,-0.2483,-0.2471,-0.2505,-0.2493,-0.2525,-0.2516,-0.2533,-0.251,-0.2509,-0.2516,-0.252,-0.2512,-0.251,-0.2508,-0.2512,-0.2534,-0.2534,-0.2535,-0.2535,0,-0.2389,-0.2415,-0.2393,-0.2415,-0.242,-0.2401,-0.2419,-0.2407,-0.2423,-0.2408,-0.2406,-0.2431,-0.2423,-0.2446,-0.244,-0.2452,-0.2418,-0.243,-0.2415,-0.2418,-0.2385,-0.2387,-0.2278,-0.2264,-0.2375,-0.2374,-0.2373,0,-0.2337,-0.232,-0.2341,-0.2337,-0.2343,-0.2336,-0.2334,-0.2365,-0.2361,-0.237,-0.2356,-0.2351,-0.2348,-0.2333,-0.2349,-0.2345,-0.2357,-0.2319,-0.2356,-0.2348,-0.2354,-0.2354,-0.2352,-0.231,-0.2309,-0.2308,-0.2307,0,-0.2242,-0.2256,-0.2253,-0.2254,-0.2251,-0.2254,-0.2258,-0.2252,-0.2285,-0.2279,-0.2272,-0.227,-0.2266,-0.2259,-0.2259,-0.2266,-0.2291,-0.2296,-0.2288,-0.2277,-0.2269,-0.2271,-0.2392,-0.2297,-0.2298,-0.2299,-0.2299,-0.23,-0.2168,-0.2155,-0.2168,-0.2163,-0.217,-0.2174,-0.2164,-0.218,-0.2175,-0.2174,-0.2193,-0.2182,-0.2191,-0.2194,-0.2198,-0.2189,-0.2206,-0.2195,-0.2192,-0.2188,-0.2182,-0.2272,-0.2189,-0.2189,-0.219,-0.219,-0.219,0,-0.2072,-0.2083,-0.2079,-0.2085,-0.2082,-0.2109,-0.2115,-0.211,-0.21,-0.2107,-0.2105,-0.2096,-0.2091,-0.2108,-0.2105,-0.2094,-0.2105,-0.2092,-0.2091,-0.2092,-0.2168,-0.2174,-0.2082,-0.2082,-0.2083,-0.2083,-0.2083,-0.2083,-0.2022,-0.2002,-0.2017,-0.2,-0.2011,-0.2001,-0.2003,-0.2006,-0.2012,-0.2001,-0.1998,-0.201,-0.2021,-0.2019,-0.2015,-0.202,-0.2016,-0.1999,-0.2007,-0.2077,-0.2087,-0.2097,-0.2103,-0.1998,-0.1998,-0.1933,-0.1932,-0.1931]},{"header":{"parameterUnit":"m.s-1","parameterCategory":1,"la1":30.2991,"la2":30.254,"lo1":-89.0895,"lo2":-89.0444,"dy":0.0017,"dx":0.0017,"nx":28,"ny":28,"refTime":"2023-08-19T03:00:00:Z","depth":0,"parameterNumber":3,"parameterNumberName":"V-component_of_WINDS"},"data":[0,0,0,0,0,0,0,0,0,0,0,0,0,0,0,0,0,0,0,0,0,0,0,0,0,0,0,0,0,0,0,0,0,0,0,0,0,0,0,0,0,0,0,0,0,0,0,0,0,0,0,0,0,0,0,0,0,0,0.6407,0.6406,0,0.6345,0.6344,0.6343,0.6311,0.6311,0.6311,0.6311,0.6241,0.6239,0.6238,0,0,0,0,0,0,0,0,0,0,0,0,0,0.6492,0.649,0.6407,0.6406,0.6405,0.6345,0.6344,0.6343,0.6311,0.6311,0.6311,0.6311,0.6242,0.624,0.6237,0,0,0,0,0,0,0,0,0,0,0,0,0,0.6445,0.649,0.6407,0.6382,0.638,0.6345,0.6344,0.6343,0.6311,0.6311,0.6311,0.6311,0.6243,0.624,0.6237,0.622,0,0,0.6229,0.6227,0,0,0,0,0,0,0,0,0.6447,0.6441,0.6387,0.6384,0.6381,0.6336,0.6348,0.6302,0.6311,0.6337,0.6311,0.6311,0.6272,0.6267,0.6255,0.6217,0.6214,0.6228,0.6227,0.6226,0.6225,0,0,0,0,0,0,0,0.6451,0.6444,0.6382,0.6386,0.6382,0.6372,0.6366,0.6339,0.6305,0.6335,0.6332,0.6326,0.6271,0.6258,0.6253,0.6213,0.6229,0.6226,0.6224,0.6223,0.6157,0.6157,0,0,0,0,0,0,0.6459,0.6447,0.6384,0.638,0.6415,0.6371,0.6363,0.635,0.6306,0.6299,0.6326,0.6325,0.6263,0.6257,0.6251,0.6228,0.6226,0.6223,0.6221,0.6157,0.6157,0.6157,0,0,0,0,0,0,0.6461,0.6453,0.6386,0.6413,0.6404,0.6369,0.6355,0.6349,0.6336,0.6299,0.6292,0.632,0.6263,0.6255,0.6229,0.6225,0.6222,0.6219,0.6157,0.6157,0.6157,0.6182,0,0,0,0,0,0,0.6463,0.6454,0.6449,0.6413,0.6402,0.6367,0.6355,0.6348,0.6333,0.633,0.6291,0.6285,0.6262,0.6233,0.6226,0.6221,0.6217,0.6157,0.6157,0.6157,0.6182,0.6183,0.6184,0,0,0,0,0,0.6466,0.6457,0.6449,0.6442,0.6395,0.6367,0.6361,0.6337,0.6332,0.6326,0.6302,0.6286,0.6227,0.623,0.6222,0.6217,0.6157,0.6157,0.6157,0.6181,0.6183,0.6184,0,0,0,0,0,0,0.6491,0.6452,0.6442,0.6422,0.6398,0.6362,0.6353,0.6339,0.6315,0.6313,0.6282,0.6274,0.625,0.623,0.6235,0.6198,0.619,0.6188,0.6211,0.6213,0.6214,0.6219,0.6215,0,0,0,0,0,0.6495,0.6477,0.6443,0.6428,0.6417,0.6387,0.6374,0.6358,0.6331,0.632,0.6294,0.6267,0.6242,0.6226,0.6201,0.6179,0.6169,0.6171,0.6172,0.6173,0.6172,0.6158,0.6158,0.6156,0.6156,0.6156,0,0,0.6501,0.6478,0.6468,0.6433,0.6412,0.6393,0.6379,0.6359,0.6343,0.6316,0.6291,0.627,0.6238,0.6214,0.6201,0.6196,0.617,0.6173,0.6174,0.6172,0.6157,0.6158,0.6158,0.6156,0.6156,0.6156,0,0,0.6503,0.6484,0.6469,0.645,0.642,0.6401,0.6397,0.6363,0.6349,0.6323,0.6303,0.6283,0.6241,0.6219,0.6202,0.6196,0.618,0.6188,0.6195,0.6181,0.6181,0.6181,0.6178,0.6178,0.6187,0.6187,0.6187,0,0.6514,0.6486,0.6463,0.6445,0.6429,0.6406,0.639,0.6371,0.6334,0.6323,0.6319,0.6266,0.6243,0.6212,0.6211,0.6198,0.6192,0.6192,0.6184,0.6183,0.6183,0.618,0.6179,0.6188,0.6188,0.6188,0.6188,0,0.6501,0.6481,0.6473,0.644,0.6424,0.6406,0.6379,0.6364,0.635,0.633,0.6303,0.6274,0.6243,0.6235,0.6219,0.6202,0.62,0.619,0.6182,0.6185,0.6181,0.618,0.619,0.6189,0.6189,0.6189,0,0,0.6516,0.6472,0.6469,0.6454,0.6419,0.6403,0.6384,0.6356,0.6344,0.6319,0.6301,0.6267,0.6258,0.6239,0.622,0.6208,0.6204,0.62,0.6198,0.6201,0.6183,0.619,0.6189,0.6194,0.6194,0.6194,0.6185,0,0.6512,0.648,0.6459,0.6434,0.6415,0.6393,0.6376,0.6352,0.6333,0.6313,0.629,0.6266,0.6257,0.6245,0.6233,0.6208,0.62,0.6208,0.6175,0.6175,0.6184,0.6188,0.6195,0.6189,0.6184,0.6184,0.6184,0,0.6504,0.6482,0.6456,0.6424,0.6415,0.6401,0.6373,0.6355,0.6327,0.6313,0.6293,0.6274,0.6251,0.6246,0.6213,0.6219,0.6204,0.619,0.6189,0.6184,0.6179,0.6182,0.6186,0.6185,0.6181,0.6181,0.6182,0,0.6517,0.6481,0.6461,0.6448,0.6411,0.6401,0.6384,0.6357,0.6341,0.6316,0.6305,0.6277,0.6261,0.6239,0.6213,0.6211,0.6182,0.6175,0.6169,0.617,0.6163,0.6164,0.6164,0.6155,0.6155,0.6155,0.6155,0,0.6515,0.65,0.6466,0.6454,0.6435,0.641,0.6392,0.6373,0.6349,0.6331,0.6309,0.6292,0.6259,0.6237,0.6216,0.6191,0.6184,0.6172,0.6166,0.6173,0.6175,0.6163,0.6162,0.6155,0.6155,0.6155,0.6155,0,0.6527,0.6504,0.648,0.6447,0.6438,0.6426,0.6397,0.6383,0.6363,0.634,0.6333,0.6301,0.6274,0.6247,0.6209,0.6195,0.6171,0.6164,0.6182,0.6179,0.6175,0.6175,0.6167,0.6164,0.6157,0.6157,0.6157,0,0.6527,0.6515,0.6481,0.6469,0.6453,0.6433,0.6418,0.6392,0.6376,0.6344,0.6333,0.6306,0.6282,0.624,0.6212,0.6184,0.6175,0.6174,0.617,0.6178,0.6174,0.6175,0.6173,0.6175,0.6175,0.6175,0.6175,0,0.6529,0.6519,0.6498,0.6474,0.6457,0.6436,0.6414,0.6404,0.6374,0.6357,0.6331,0.6313,0.6277,0.6249,0.6217,0.6197,0.6181,0.6177,0.6174,0.6181,0.6192,0.6185,0.6185,0.6177,0.6177,0.6177,0.6177,0.6177,0.6534,0.6523,0.6498,0.6475,0.6457,0.6437,0.6422,0.6401,0.638,0.635,0.6335,0.6309,0.628,0.6236,0.6217,0.6195,0.619,0.6185,0.6184,0.6184,0.6185,0.6196,0.6189,0.6188,0.6188,0.6188,0.6188,0,0.6535,0.6518,0.6499,0.647,0.6452,0.644,0.6415,0.6401,0.6379,0.6354,0.6332,0.6302,0.6275,0.6245,0.6216,0.6204,0.6195,0.6197,0.6197,0.6192,0.6192,0.6197,0.6204,0.6204,0.6204,0.6204,0.6204,0.6204,0.6534,0.6514,0.65,0.6469,0.6452,0.6428,0.6414,0.6395,0.6376,0.6344,0.6322,0.6304,0.6277,0.6245,0.6219,0.6211,0.6201,0.6205,0.6194,0.6194,0.6192,0.6191,0.6196,0.6203,0.6203,0.6197,0.6197,0.6197]}]]